User: anonymous   Login
Location: Unspecified
(0.0000°N, 0.0000°E)
Time: 07:57:13
(UTC+00:00)
Language:

GALILEO-FM3 - Orbit

View from above orbital plane
View from above orbital plane
View from above satellite
View from above satellite

Ground track
Ground track

The orbit data is extracted from the following two-line orbital elements,

1 38857U 12055A   17143.03314922 +.00000066 +00000-0 +00000-0 0  9996
2 38857 054.9076 192.7272 0005163 243.6959 116.3473 01.70473705028691
Epoch (UTC): 23 May 2017 00:47:44
Eccentricity: 0.0005163
inclination: 54.9076°
perigee height: 23207 km
apogee height: 23237 km
right ascension of ascending node: 192.7272°
argument of perigee: 243.6959°
revolutions per day: 1.70473705
mean anomaly at epoch: 116.3473°
orbit number at epoch: 2869

The dashed part of the orbit path shows where the satellite is in the earth's shadow,  

DLR